Home > Weather > Denver > Past weeks

Flag for USA Past Weather in Denver, Colorado, USA — Yesterday and Last 2 Weeks

Now
53 °F

Partly cloudy.


Feels Like: 50 °F
Forecast: 54 / 74 °F
Wind: 9 mph from Southeast

Location: Buckley Air Force Base

Current Time: Aug 26, 2016 at 1:06:15 AM

Latest Report: Aug 25, 2016 at 11:58 PM


Visibility: 10 mi

Pressure: 30.10 "Hg (24.86 "Hg at 1593m altitude)

Humidity: 83%

Dew Point: 48 °F

Location of DenverLocation

Past Weather in Denver — Graph

°F

Denver Temperature Yesterday

Maximum temperature yesterday: 69 °F (at 1:58 PM)
Minimum temperature yesterday: 48 °F (at 5:58 AM)
Average temperature yesterday: 55 °F

High & Low Weather Summary for the Past Weeks

 TemperatureHumidityPressure
High92 °F (Aug 17, 12:58 PM)100% (Aug 19, 4:03 AM)30.29 "Hg (Aug 19, 4:03 AM)
Low46 °F (Aug 20, 6:58 AM)10% (Aug 13, 12:58 PM)29.69 "Hg (Aug 22, 3:58 PM)
Average68 °F46%29.97 "Hg
* Reported Aug 10 11:58 PM — Aug 25 11:58 PM, Denver, Weather by CustomWeather, © 2016

Note: Actual official high and low records may vary slightly from our data, if they occured in-between our weather recording intervals... More about our weather records

Advertising

Denver Weather History for the Previous 24 Hours

Scroll right to see more
 ConditionsComfort  
Time TempWeatherWind HumidityBarometerVisibility
11:58 PM
Thu, Aug 25
53 °FPartly cloudy.9 mph83%30.10 "Hg10 mi
10:58 PM53 °FPassing clouds.9 mph90%30.13 "Hg10 mi
9:58 PM53 °FPartly cloudy.6 mph90%30.12 "Hg10 mi
8:58 PM54 °FPassing clouds.5 mph88%30.13 "Hg10 mi
7:58 PM54 °FPartly sunny.6 mph90%30.11 "Hg10 mi
6:58 PM59 °FBroken clouds.9 mph76%30.14 "Hg10 mi
5:58 PM58 °FBroken clouds.9 mph87%30.13 "Hg10 mi
4:58 PM54 °FThundershowers. Broken clouds.6 mph95%30.17 "Hg10 mi
3:58 PM62 °FThundershowers. More clouds than sun.12 mph63%30.13 "Hg7 mi
2:58 PM66 °FBroken clouds.13 mph51%30.08 "Hg10 mi
1:58 PM69 °FBroken clouds.No wind47%30.09 "Hg7 mi
12:58 PM66 °FScattered clouds.3 mph50%30.12 "Hg10 mi
11:58 AM63 °FScattered clouds.7 mph55%30.15 "Hg10 mi
10:58 AM59 °FScattered clouds.6 mph62%30.18 "Hg10 mi
9:58 AM56 °FScattered clouds.8 mph73%30.18 "Hg10 mi
8:58 AM54 °FScattered clouds.10 mph86%30.16 "Hg10 mi
7:58 AM53 °FScattered clouds.9 mph86%30.14 "Hg10 mi
6:58 AM48 °FPassing clouds.5 mph75%30.13 "Hg10 mi
5:58 AM48 °FPassing clouds.7 mph75%30.10 "Hg10 mi
4:58 AM50 °FPassing clouds.7 mph65%30.09 "Hg10 mi
3:58 AM50 °FPassing clouds.1 mph60%30.10 "Hg10 mi
2:58 AM50 °FPassing clouds.10 mph65%30.11 "Hg10 mi
1:58 AM49 °FPassing clouds.10 mph70%30.11 "Hg10 mi
Weather by CustomWeather, © 2016

See weather overviewHow to use our weather pages